S55G-5 Weather Reports


Display with metric or nautical units.
time (UTC)temp
F
wind
direction
speed
MPH
gust
MPH
rain 1hr
in
rain 24hr
in
rain mn
in
humidity
%
barometer
mb
20260506204503 59 70 0.0 4.0 0.00 0.84 0.84 91 1012.3
20260506203603 59 25 1.0 2.0 0.00 0.84 0.84 93 1012.5
20260506202703 59 34 1.0 2.0 0.00 0.84 0.84 93 1012.4
20260506201803 59 352 0.0 4.0 0.00 0.85 0.84 93 1012.3
20260506200903 60 14 0.0 4.0 0.00 0.86 0.84 93 1012.3
20260506200003 60 292 1.0 2.0 0.00 0.86 0.84 92 1012.4
20260506195403 60 289 1.0 2.0 0.00 0.86 0.84 92 1012.4
20260506194718 60 280 0.0 2.0 0.00 0.86 0.84 91 1012.3
20260506193817 60 324 1.0 2.0 0.00 0.86 0.84 91 1011.9
20260506192703 60 313 2.0 4.0 0.00 0.86 0.84 91 1011.9
20260506191803 60 14 0.0 4.0 0.00 0.86 0.84 91 1011.6
20260506190903 60 17 2.0 4.0 0.00 0.86 0.84 91 1011.6
20260506190004 61 90 3.0 8.0 0.00 0.86 0.84 90 1011.4
20260506185403 61 133 3.0 9.0 0.00 0.86 0.84 88 1011.3
20260506184503 61 141 5.0 15.0 0.00 0.86 0.84 89 1011.1
20260506183817 60 158 2.0 13.0 0.00 0.86 0.84 93 1011.0
20260506182703 60 90 2.0 6.0 0.00 0.86 0.84 96 1011.1
20260506181803 60 80 2.0 4.0 0.00 0.86 0.84 96 1011.3
20260506180903 60 99 0.0 2.0 0.00 0.86 0.84 96 1011.2
20260506180004 60 32 1.0 2.0 0.08 0.86 0.84 95 1011.1
20260506175618 60 25 0.0 4.0 0.13 0.86 0.84 95 1011.1
20260506174503 60 37 2.0 4.0 0.13 0.86 0.84 94 1011.2
20260506173603 60 140 1.0 4.0 0.13 0.86 0.84 94 1011.1
20260506172703 61 240 1.0 4.0 0.13 0.86 0.84 94 1011.0
20260506172017 61 256 2.0 7.0 0.13 0.86 0.84 94 1010.9
20260506170903 61 235 2.0 15.0 0.13 0.86 0.84 92 1010.8
20260506170003 63 150 5.0 11.0 0.05 0.78 0.76 87 1010.1
20260506165403 64 134 4.0 11.0 0.00 0.73 0.71 83 1010.1
20260506164717 64 119 4.0 8.0 0.00 0.73 0.71 83 1009.8
20260506163818 65 152 2.0 9.0 0.00 0.73 0.71 82 1010.1
20260506162917 65 191 2.0 9.0 0.00 0.73 0.71 81 1010.4
20260506162017 65 196 2.0 6.0 0.00 0.73 0.71 81 1010.6
20260506161118 65 125 3.0 6.0 0.00 0.73 0.71 81 1010.6
20260506160003 66 127 4.0 8.0 0.00 0.74 0.71 80 1010.7
20260506155403 67 133 4.0 8.0 0.00 0.74 0.71 79 1010.7
20260506154503 67 132 0.0 11.0 0.00 0.74 0.71 80 1010.9
20260506153818 66 114 3.0 11.0 0.00 0.74 0.71 82 1010.6
20260506152703 67 113 4.0 7.0 0.00 0.74 0.71 81 1011.0
20260506151803 67 122 2.0 6.0 0.00 0.76 0.71 81 1011.2
20260506150903 67 141 1.0 4.0 0.00 0.76 0.71 79 1011.3
20260506150217 68 170 2.0 8.0 0.00 0.76 0.71 81 1011.3
20260506145403 66 108 4.0 8.0 0.00 0.77 0.71 82 1011.6
20260506144503 66 113 1.0 4.0 0.00 0.77 0.71 84 1011.5
20260506143603 64 77 0.0 4.0 0.00 0.77 0.71 86 1011.6
20260506142917 63 53 2.0 4.0 0.00 0.77 0.71 88 1011.5
20260506141803 62 49 1.0 2.0 0.00 0.78 0.71 88 1011.5
20260506141118 62 33 1.0 4.0 0.00 0.78 0.71 88 1011.5
20260506140003 62 347 2.0 2.0 0.00 0.79 0.71 88 1011.9
20260506135403 62 2 1.0 2.0 0.00 0.79 0.71 88 1011.8
20260506134503 62 356 1.0 4.0 0.00 0.80 0.71 89 1011.9
20260506133603 61 68 2.0 4.0 0.00 0.80 0.71 88 1011.7
20260506132703 61 44 2.0 6.0 0.00 0.80 0.71 88 1011.8
20260506131804 63 129 3.0 4.0 0.00 0.80 0.71 85 1012.2
20260506130903 64 177 2.0 8.0 0.00 0.80 0.71 85 1012.3
20260506130004 64 190 3.0 6.0 0.00 0.80 0.71 84 1012.2
20260506125403 64 195 2.0 6.0 0.00 0.80 0.71 85 1012.2
20260506124503 63 218 2.0 4.0 0.00 0.80 0.71 85 1012.3
20260506123603 62 181 1.0 9.0 0.00 0.81 0.71 87 1012.4
20260506122703 61 206 2.0 11.0 0.00 0.81 0.71 90 1012.4
20260506121803 61 190 5.0 11.0 0.00 0.81 0.71 88 1012.5
20260506120903 61 289 2.0 8.0 0.00 0.81 0.71 89 1012.5
20260506120004 61 208 3.0 8.0 0.00 0.81 0.71 88 1012.3
20260506115617 62 198 4.0 8.0 0.00 0.81 0.71 87 1012.1
20260506114503 62 173 2.0 8.0 0.00 0.81 0.71 86 1012.2
20260506113603 62 162 3.0 9.0 0.00 0.81 0.71 86 1012.4
20260506112703 62 196 2.0 13.0 0.00 0.83 0.71 87 1012.5
20260506111803 62 173 4.0 13.0 0.00 0.83 0.71 86 1012.6
20260506110903 62 171 2.0 9.0 0.00 0.83 0.71 87 1012.5
20260506110003 61 150 5.0 18.0 0.00 0.83 0.71 88 1012.3
20260506105403 61 130 4.0 18.0 0.00 0.83 0.71 87 1012.6
20260506104503 62 137 5.0 11.0 0.00 0.83 0.71 89 1012.5
20260506103603 62 134 4.0 9.0 0.01 0.83 0.71 90 1012.5
20260506102703 61 143 4.0 11.0 0.01 0.83 0.71 91 1012.8
20260506101803 60 133 4.0 13.0 0.06 0.83 0.71 92 1012.8
20260506100903 59 128 7.0 11.0 0.07 0.83 0.71 92 1012.7
20260506100003 59 151 3.0 11.0 0.09 0.83 0.71 93 1012.9
20260506095403 59 124 3.0 11.0 0.11 0.84 0.71 94 1013.0
20260506094718 58 147 2.0 9.0 0.12 0.84 0.71 95 1012.8
20260506093603 58 122 4.0 8.0 0.15 0.83 0.70 96 1013.1
20260506092917 58 112 1.0 9.0 0.19 0.83 0.70 96 1012.9
20260506091803 58 87 2.0 4.0 0.19 0.78 0.65 97 1012.8
20260506090903 58 95 2.0 6.0 0.20 0.77 0.64 97 1013.1
20260506090003 58 69 2.0 7.0 0.21 0.74 0.61 97 1012.8
20260506085403 58 72 2.0 6.0 0.22 0.73 0.60 97 1012.8
20260506084503 58 75 2.0 4.0 0.25 0.72 0.59 97 1013.0
20260506083603 58 84 2.0 2.0 0.21 0.67 0.54 97 1012.7
20260506082703 58 101 2.0 2.0 0.20 0.63 0.50 97 1012.9
20260506081803 58 98 2.0 4.0 0.20 0.59 0.46 97 1013.0
20260506080903 58 97 1.0 2.0 0.21 0.57 0.44 98 1012.9
20260506072703 58 45 1.0 4.0 0.24 0.43 0.30 97 1012.6
20260506071803 58 11 2.0 4.0 0.21 0.39 0.26 97 1012.6
20260506070903 58 28 2.0 4.0 0.18 0.35 0.22 97 1012.5
20260506070218 58 27 2.0 2.0 0.15 0.33 0.20 97 1012.6
20260506061803 58 14 0.0 2.0 0.05 0.18 0.05 97 1012.6
20260506060903 58 42 0.0 2.0 0.05 0.18 0.05 97 1012.5
20260506050903 57 67 0.0 2.0 0.00 0.13 0.00 97 1012.3
20260506044503 56 51 1.0 2.0 0.00 0.13 0.00 97 1012.1
20260506043603 56 22 0.0 2.0 0.00 0.13 0.00 97 1012.4
20260506042703 56 122 0.0 2.0 0.00 0.13 0.00 97 1012.4
20260506042018 56 117 0.0 2.0 0.00 0.13 0.00 96 1012.6
20260506040903 56 22 1.0 2.0 0.00 0.13 0.00 96 1012.4
20260506040003 56 18 2.0 2.0 0.00 0.13 0.00 96 1012.5
20260506035403 56 70 0.0 2.0 0.00 0.13 0.00 96 1012.5
20260506034503 56 106 1.0 2.0 0.00 0.13 0.00 96 1012.6
20260506033603 56 360 0.0 2.0 0.00 0.13 0.00 95 1012.6
20260506032703 57 17 2.0 2.0 0.00 0.13 0.00 95 1012.7
20260506031803 57 62 1.0 2.0 0.00 0.13 0.00 95 1012.8
20260506030903 57 64 2.0 2.0 0.00 0.13 0.00 95 1012.8
20260506030003 57 44 1.0 2.0 0.00 0.13 0.00 94 1013.0
20260506025403 57 45 0.0 2.0 0.00 0.13 0.00 94 1013.1
20260506024503 57 360 0.0 2.0 0.00 0.13 0.00 94 1013.1
20260506023603 57 28 0.0 2.0 0.00 0.13 0.00 94 1013.1
20260506022703 57 135 0.0 2.0 0.00 0.13 0.00 94 1013.3
20260506021803 57 360 0.0 2.0 0.00 0.13 0.00 94 1013.2
20260506020903 57 4 0.0 2.0 0.00 0.13 0.00 94 1013.3
20260506020003 57 306 0.0 2.0 0.00 0.13 0.00 94 1013.4
20260506015403 57 331 1.0 2.0 0.00 0.13 0.00 93 1013.4
20260506014503 58 18 1.0 2.0 0.00 0.13 0.00 93 1013.4
20260506013603 58 355 1.0 2.0 0.00 0.13 0.00 93 1013.3
20260506012703 58 351 2.0 4.0 0.00 0.13 0.00 93 1013.4
20260506011803 58 26 0.0 6.0 0.00 0.13 0.00 94 1013.3
20260506010903 57 344 2.0 4.0 0.00 0.13 0.00 95 1013.0
20260506010003 57 2 0.0 2.0 0.00 0.13 0.00 95 1013.4
20260506005617 57 10 0.0 2.0 0.00 0.13 0.00 95 1013.2
20260506004504 57 339 1.0 2.0 0.00 0.13 0.00 95 1013.2
20260506003603 57 326 1.0 2.0 0.00 0.13 0.00 94 1013.0
20260506002703 57 72 1.0 2.0 0.00 0.13 0.00 94 1013.0
20260506001803 57 19 0.0 2.0 0.00 0.13 0.00 93 1013.2
20260506000903 57 18 1.0 2.0 0.00 0.13 0.00 93 1013.2
20260506000219 57 28 2.0 4.0 0.00 0.13 0.00 93 1013.3
20260505235403 57 31 2.0 4.0 0.00 0.13 0.00 93 1013.3
20260505234503 57 64 0.0 4.0 0.00 0.13 0.00 92 1013.5
20260505233603 57 73 1.0 4.0 0.00 0.13 0.00 93 1013.6
20260505232703 56 97 2.0 2.0 0.00 0.13 0.00 95 1013.7
20260505231803 56 88 0.0 2.0 0.00 0.13 0.00 95 1013.8
20260505230903 56 273 0.0 2.0 0.00 0.13 0.00 96 1013.8
20260505230003 56 292 1.0 2.0 0.00 0.13 0.00 97 1014.0
20260505225403 56 7 1.0 4.0 0.00 0.13 0.00 97 1013.9
20260505224503 56 40 2.0 4.0 0.00 0.13 0.00 97 1013.8
20260505223603 56 67 2.0 2.0 0.00 0.13 0.00 97 1014.0
20260505222703 56 95 1.0 4.0 0.00 0.13 0.00 97 1014.0
20260505222018 56 76 1.0 4.0 0.00 0.13 0.00 97 1014.2
20260505220903 56 45 0.0 2.0 0.00 0.13 0.00 97 1014.3
20260505220004 56 15 1.0 2.0 0.00 0.13 0.00 97 1014.3
20260505215403 56 354 1.0 2.0 0.00 0.13 0.13 97 1014.3
20260505214503 56 331 1.0 2.0 0.00 0.13 0.13 97 1014.2
20260505213603 56 16 0.0 4.0 0.00 0.13 0.13 97 1014.1
20260505212703 56 32 0.0 2.0 0.00 0.13 0.13 97 1014.2
20260505211803 56 27 0.0 2.0 0.01 0.13 0.13 97 1014.2
20260505210903 56 6 0.0 2.0 0.02 0.13 0.13 97 1014.5
20260505210003 56 337 1.0 2.0 0.02 0.13 0.13 97 1014.6
20260505205403 56 56 0.0 2.0 0.02 0.13 0.13 97 1014.6